Weather Roundup
Issued by NWS

Home | Current Version | Previous Version | Graphics & Text | Print | Product List | Glossary Off
Versions: 1 2 3 4 5 6 7 8 9 10 11 12 13 14 15 16 17 18 19 20 21 22 23 24 25 26 27 28 29 30 31 32 33 34 35 36 37 38 39 40 41 42 43 44 45 46 47 48 49 50

000
NZUS93 KARX 191510
HRRWXR

CURRENT HOURLY OBSERVATIONS ACROSS
MUCH OF THE UPPER MISSISSIPPI VALLEY
NATIONAL WEATHER SERVICE LA CROSSE WI
1000 AM CDT SAT AUG 19 2017


...SOUTHEAST MINNESOTA...


CITY           SKY/WX    TMP DP  RH WIND       PRES   REMARKS
ROCHESTER      SUNNY     68  63  84 SW8       30.00R
ROCHESTER/MAYO FAIR      69  61  75 SW3       30.00R
WINONA         SUNNY     61  61 100 CALM      29.98S
AUSTIN         SUNNY     70  59  68 S5        29.99R
ALBERT LEA     SUNNY     72  63  73 CALM      29.99R
DODGE CENTER   SUNNY     68  61  77 S6        29.99R
PRESTON        SUNNY     67  56  66 SW5       30.01R
OWATONNA       SUNNY     66  63  88 SW3       29.99R
FARIBAULT      SUNNY     66  63  88 S5        29.99R
$$

...ELSEWHERE IN MINNESOTA...


CITY           SKY/WX    TMP DP  RH WIND       PRES   REMARKS
MINNEAPOLIS    MOSUNNY   64  59  83 SW6       29.97R
INTNL FALLS    SUNNY     70  59  68 SW3       29.86R
DULUTH         SUNNY     70  61  73 NW5       29.91S
RED WING       SUNNY     66  64  94 CALM      29.97R
REDWOOD FALLS  PTSUNNY   62  60  93 SW7       29.97S
MANKATO        PTSUNNY   63  61  93 W6        29.99S
WORTHINGTON    SUNNY     65  62  90 S3        30.00S
FAIRMONT       SUNNY     66  61  84 S3        30.00R
$$

...SOUTHWEST WISCONSIN...


CITY           SKY/WX    TMP DP  RH WIND       PRES   REMARKS
LA CROSSE      MOSUNNY   67  62  84 S3        29.99R
PRAIRIE DU CHI MOSUNNY   64  62  96 CALM      29.99R
BOSCOBEL       PTSUNNY   63  62  97 CALM      29.99R FOG
LONE ROCK      MOSUNNY   66  64  93 CALM      29.98S
PLATTEVILLE    SUNNY     69  68  96 CALM      30.00R
FORT MC COY    SUNNY     64  60  88 CALM      29.98R
CAMP DOUGLAS   SUNNY     70  70 100 CALM      29.97R
MAUSTON-NEW LI SUNNY     71  63  77 NW3       29.97R
VIROQUA        FAIR      70  62  76 CALM      30.00R
WIS DELLS      SUNNY     70  59  67 CALM      29.97S
$$

...ELSEWHERE IN WISCONSIN...


CITY           SKY/WX    TMP DP  RH WIND       PRES   REMARKS
MILWAUKEE      SUNNY     73  61  65 W5        29.96R
MADISON        MOSUNNY   71  63  75 CALM      29.97R
GREEN BAY      SUNNY     71  66  84 W6        29.92S
EAU CLAIRE     SUNNY     69  62  78 W8        29.96R
BLACK RVR FLS  FAIR      68  66  93 CALM      29.97R
MEDFORD        SUNNY     67  61  83 W10       29.97R
WAUSAU         SUNNY     69  60  73 W8        29.94S
WIS RAPIDS     SUNNY     70  63  78 NW5       29.97S
MARSHFIELD     SUNNY     70  61  73 W7        29.96S
RICE LAKE      SUNNY     69  66  92 W6        29.98R
$$

...NORTHEAST IOWA...


CITY           SKY/WX    TMP DP  RH WIND       PRES   REMARKS
WATERLOO       MOSUNNY   69  58  67 SE3       29.98R
DUBUQUE        SUNNY     71  62  73 NE3       29.99S
DECORAH        SUNNY     66  61  82 CALM      29.99S
MASON CITY     SUNNY     69  62  78 S5        30.00S
CHARLES CITY   SUNNY     68  64  88 CALM      30.00R
OELWEIN        SUNNY     70  61  73 SE5       30.00S
$$

...ELSEWHERE IN IOWA...


CITY           SKY/WX    TMP DP  RH WIND       PRES   REMARKS
DES MOINES     CLOUDY    70  64  81 CALM      29.96R
IOWA CITY      PTSUNNY   72  62  71 E7        29.99R
FORT DODGE     CLOUDY    66  61  82 CALM      30.00R
MARSHALLTOWN   CLOUDY    68  63  84 E5        29.99R
CEDAR RAPIDS   MOSUNNY   70  62  76 SE6       29.98R
$$

...NORTHERN ILLINOIS...


CITY           SKY/WX    TMP DP  RH WIND       PRES   REMARKS
CHICAGO-OHARE  MOSUNNY   75  59  57 CALM      29.96R
CHICAGO-MIDWAY MOSUNNY   74  61  63 E5        29.96R
MOLINE         SUNNY     73  62  68 E6        29.98R
ROCKFORD       MOSUNNY   70  63  78 CALM      29.99R
PEORIA         SUNNY     75  61  61 E5        29.97R
$$

NOTE: "FAIR" INDICATES FEW OR NO CLOUDS BELOW 12,000 FEET WITH NO
SIGNIFICANT WEATHER AND/OR OBSTRUCTIONS TO VISIBILITY. WIND
SPEEDS ARE IN MILES-PER-HOUR.




USA.gov is the U.S. government's official web portal to all federal, state and local government web resources and services.